TimeCST,TemperatureF,Dew PointF,Humidity,Sea Level PressureIn,VisibilityMPH,Wind Direction,Wind SpeedMPH,Gust SpeedMPH,PrecipitationIn,Events,Conditions,WindDirDegrees,DateUTC
12:15 AM,55.4,44.6,67,30.25,10.0,Calm,Calm,-,N/A,,Overcast,0,2013-01-09 06:15:00
12:35 AM,55.4,44.6,67,30.25,10.0,Calm,Calm,-,N/A,,Overcast,0,2013-01-09 06:35:00
12:55 AM,55.4,44.6,67,30.26,9.0,Calm,Calm,-,N/A,,Overcast,0,2013-01-09 06:55:00
1:15 AM,55.4,44.6,67,30.26,5.0,Calm,Calm,-,N/A,,Haze,0,2013-01-09 07:15:00
1:35 AM,53.6,44.6,72,30.26,6.0,Calm,Calm,-,N/A,,Haze,0,2013-01-09 07:35:00
1:55 AM,53.6,44.6,72,30.26,6.0,Calm,Calm,-,N/A,,Light Drizzle,0,2013-01-09 07:55:00
2:15 AM,53.6,44.6,72,30.26,4.0,Calm,Calm,-,N/A,,Light Drizzle,0,2013-01-09 08:15:00
2:35 AM,53.6,44.6,72,30.26,5.0,East,3.5,-,N/A,,Light Drizzle,80,2013-01-09 08:35:00
2:55 AM,53.6,44.6,72,30.27,5.0,Calm,Calm,-,N/A,,Light Drizzle,0,2013-01-09 08:55:00
3:15 AM,53.6,44.6,72,30.27,4.0,Calm,Calm,-,N/A,,Light Drizzle,0,2013-01-09 09:15:00
3:35 AM,53.6,44.6,72,30.28,3.0,Calm,Calm,-,N/A,,Drizzle,0,2013-01-09 09:35:00
3:55 AM,53.6,44.6,72,30.27,3.0,Calm,Calm,-,N/A,Rain,Light Rain,0,2013-01-09 09:55:00
4:15 AM,53.6,44.6,72,30.27,2.5,Calm,Calm,-,N/A,Rain,Light Rain,0,2013-01-09 10:15:00
4:35 AM,53.6,46.4,77,30.28,3.0,Calm,Calm,-,0.01,,Light Drizzle,0,2013-01-09 10:35:00
4:55 AM,53.6,44.6,72,30.27,4.0,Calm,Calm,-,0.01,,Light Drizzle,0,2013-01-09 10:55:00
5:15 AM,53.6,44.6,72,30.28,4.0,Calm,Calm,-,N/A,,Light Drizzle,0,2013-01-09 11:15:00
5:35 AM,53.6,44.6,72,30.28,3.0,Calm,Calm,-,N/A,,Light Drizzle,0,2013-01-09 11:35:00
5:55 AM,53.6,44.6,72,30.28,3.0,Calm,Calm,-,N/A,,Haze,0,2013-01-09 11:55:00
6:15 AM,53.6,44.6,72,30.28,3.0,Calm,Calm,-,N/A,,Light Drizzle,0,2013-01-09 12:15:00
6:35 AM,53.6,44.6,72,30.29,3.0,Calm,Calm,-,N/A,,Light Drizzle,0,2013-01-09 12:35:00
6:55 AM,53.6,44.6,72,30.30,4.0,Calm,Calm,-,N/A,,Light Drizzle,0,2013-01-09 12:55:00
7:15 AM,53.6,44.6,72,30.30,5.0,Calm,Calm,-,N/A,,Light Drizzle,0,2013-01-09 13:15:00
7:35 AM,53.6,44.6,72,30.31,5.0,Calm,Calm,-,N/A,,Haze,0,2013-01-09 13:35:00
7:55 AM,53.6,44.6,72,30.32,2.5,Calm,Calm,-,N/A,Rain,Light Rain,0,2013-01-09 13:55:00
8:35 AM,53.6,44.6,72,30.34,2.5,Calm,Calm,-,N/A,Rain,Light Rain,0,2013-01-09 14:35:00
8:55 AM,53.6,46.4,77,30.34,3.0,ESE,4.6,-,N/A,,Haze,110,2013-01-09 14:55:00
9:15 AM,53.6,44.6,72,30.35,3.0,Calm,Calm,-,N/A,,Light Drizzle,0,2013-01-09 15:15:00
9:35 AM,55.4,44.6,67,30.35,2.5,ESE,3.5,-,N/A,Rain,Light Rain,120,2013-01-09 15:35:00
9:55 AM,55.4,44.6,67,30.35,3.0,Calm,Calm,-,N/A,,Light Drizzle,0,2013-01-09 15:55:00
10:15 AM,55.4,46.4,72,30.35,2.5,Calm,Calm,-,N/A,,Light Drizzle,0,2013-01-09 16:15:00
10:35 AM,55.4,44.6,67,30.34,0.8,Calm,Calm,-,0.02,Rain,Light Rain,0,2013-01-09 16:35:00
10:55 AM,55.4,46.4,72,30.33,2.5,NE,3.5,-,0.03,,Haze,40,2013-01-09 16:55:00
11:15 AM,55.4,46.4,72,30.31,3.0,NE,3.5,-,N/A,,Haze,50,2013-01-09 17:15:00
11:35 AM,57.2,46.4,67,30.32,2.5,Calm,Calm,-,N/A,,Light Drizzle,0,2013-01-09 17:35:00
12:15 PM,57.2,46.4,67,30.29,2.5,ENE,3.5,-,N/A,,Light Drizzle,70,2013-01-09 18:15:00
12:35 PM,57.2,46.4,67,30.29,3.0,Calm,Calm,-,N/A,,Light Drizzle,0,2013-01-09 18:35:00
12:55 PM,57.2,46.4,67,30.30,1.8,Calm,Calm,-,N/A,Rain,Light Rain,0,2013-01-09 18:55:00
1:15 PM,57.2,46.4,67,30.30,0.8,Calm,Calm,-,0.03,Rain,Light Rain,0,2013-01-09 19:15:00
1:35 PM,57.2,46.4,67,30.28,1.2,Calm,Calm,-,0.05,Rain,Light Rain,0,2013-01-09 19:35:00
2:15 PM,57.2,46.4,67,30.28,1.8,NE,3.5,-,0.01,Rain,Light Rain,40,2013-01-09 20:15:00
2:35 PM,57.2,44.6,63,30.28,3.0,Calm,Calm,-,0.02,,Light Drizzle,0,2013-01-09 20:35:00
2:55 PM,57.2,46.4,67,30.28,4.0,NE,3.5,-,0.02,,Drizzle,40,2013-01-09 20:55:00
3:15 PM,57.2,46.4,67,30.28,5.0,Calm,Calm,-,N/A,,Light Drizzle,0,2013-01-09 21:15:00
3:35 PM,57.2,46.4,67,30.27,4.0,NE,5.8,-,N/A,,Drizzle,50,2013-01-09 21:35:00
3:55 PM,57.2,46.4,67,30.28,4.0,Calm,Calm,-,N/A,,Light Drizzle,0,2013-01-09 21:55:00
4:15 PM,57.2,46.4,67,30.28,4.0,Calm,Calm,-,N/A,,Light Drizzle,0,2013-01-09 22:15:00
4:35 PM,57.2,46.4,67,30.28,5.0,Calm,Calm,-,N/A,,Haze,0,2013-01-09 22:35:00
4:55 PM,57.2,46.4,67,30.28,5.0,Calm,Calm,-,N/A,Rain,Light Rain,0,2013-01-09 22:55:00
5:15 PM,57.2,46.4,67,30.28,6.0,ENE,5.8,-,N/A,,Light Drizzle,60,2013-01-09 23:15:00
5:35 PM,57.2,46.4,67,30.30,4.0,Calm,Calm,-,N/A,Rain,Light Rain,0,2013-01-09 23:35:00
5:55 PM,57.2,44.6,63,30.30,1.8,East,3.5,-,0.04,,Light Drizzle,90,2013-01-09 23:55:00
6:15 PM,57.2,44.6,63,30.30,3.0,East,3.5,-,N/A,,Light Drizzle,80,2013-01-10 00:15:00
6:35 PM,57.2,46.4,67,30.30,1.2,East,4.6,-,0.03,Rain,Rain,80,2013-01-10 00:35:00
6:55 PM,57.2,46.4,67,30.29,10.0,East,6.9,-,0.04,,Overcast,100,2013-01-10 00:55:00
7:15 PM,57.2,46.4,67,30.29,6.0,East,4.6,-,N/A,,Haze,90,2013-01-10 01:15:00
7:35 PM,59.0,46.4,63,30.30,5.0,East,6.9,-,N/A,,Haze,100,2013-01-10 01:35:00
7:55 PM,59.0,46.4,63,30.30,3.0,East,5.8,-,N/A,Rain,Light Rain,90,2013-01-10 01:55:00
8:35 PM,57.2,44.6,63,30.30,7.0,ESE,6.9,-,N/A,,Overcast,110,2013-01-10 02:35:00
8:55 PM,57.2,44.6,63,30.30,5.0,ESE,4.6,-,N/A,,Light Drizzle,120,2013-01-10 02:55:00
9:15 PM,57.2,44.6,63,30.31,4.0,SE,3.5,-,N/A,,Haze,140,2013-01-10 03:15:00
9:35 PM,57.2,42.8,59,30.30,5.0,SE,3.5,-,N/A,,Haze,130,2013-01-10 03:35:00
9:55 PM,57.2,44.6,63,30.30,5.0,SE,5.8,-,N/A,,Haze,130,2013-01-10 03:55:00
10:15 PM,57.2,44.6,63,30.32,5.0,SE,5.8,-,N/A,,Haze,130,2013-01-10 04:15:00
10:35 PM,59.0,44.6,59,30.31,5.0,SE,3.5,-,N/A,,Haze,130,2013-01-10 04:35:00
11:15 PM,59.0,44.6,59,30.31,5.0,SE,3.5,-,N/A,,Haze,130,2013-01-10 05:15:00
11:35 PM,59.0,42.8,55,30.31,5.0,SE,4.6,-,N/A,,Haze,130,2013-01-10 05:35:00
11:55 PM,59.0,44.6,59,30.29,5.0,ESE,5.8,-,N/A,,Haze,110,2013-01-10 05:55:00